Regional Weather Roundup
Issued by NWS Little Rock, AR

Home | Current Version | Previous Version | Text Only | Print | Product List | Glossary On
Versions: 1 2 3 4 5 6 7 8 9 10 11 12 13 14 15 16 17 18 19 20 21 22 23 24 25 26 27 28 29 30 31 32 33 34 35 36 37 38 39 40 41 42 43 44 45 46 47 48 49 50
000
ASUS44 KLZK 091605
RWRLZK

WEATHER ROUNDUP FOR ARKANSAS
NATIONAL WEATHER SERVICE LITTLE ROCK AR
1000 AM CST FRI DEC 09 2016

NOTE: "FAIR" INDICATES FEW OR NO CLOUDS BELOW 12,000 FEET WITH NO
SIGNIFICANT WEATHER AND/OR OBSTRUCTIONS TO VISIBILITY.

ARZ001-003-010-029-091700-
NORTHWEST ARKANSAS

CITY           SKY/WX    TMP DP  RH WIND       PRES   REMARKS
FAYETTEVILLE   SUNNY     24  16  71 E6        30.64R WCI  17
FORT SMITH     SUNNY     28  14  55 E8        30.70S WCI  20
HARRISON       SUNNY     24  13  62 VRB3      30.65R
BENTONVILLE    SUNNY     27  12  54 E8        30.64S WCI  18
ROGERS         SUNNY     25  16  68 SE8       30.64R WCI  16
SILOAM SPGS    SUNNY     25  12  58 E7        30.64R WCI  17
HIGHFILL       SUNNY     24  16  71 E7        30.63R WCI  16
$$

ARZ004-005-016-091700-
NORTH CENTRAL ARKANSAS

CITY           SKY/WX    TMP DP  RH WIND       PRES   REMARKS
BATESVILLE     SUNNY     27  12  54 N5        30.72R WCI  21
FLIPPIN        SUNNY     27  12  54 CALM      30.66R
MTN HOME       SUNNY     24  13  62 CALM      30.66S
$$

ARZ040-041-091700-
WEST CENTRAL ARKANSAS

CITY           SKY/WX    TMP DP  RH WIND       PRES   REMARKS
MENA           SUNNY     32  18  55 E6        30.66R WCI  26
$$

ARZ009-017-025-026-028-091700-
NORTHEAST ARKANSAS

CITY           SKY/WX    TMP DP  RH WIND       PRES   REMARKS
CORNING        FAIR      27  16  63 N5        30.71R WCI  21
JONESBORO      SUNNY     29  15  56 NE6       30.70R WCI  23
NEWPORT        SUNNY     27  17  66 N6        30.72R WCI  20
WALNUT RIDGE   SUNNY     27  14  59 N7        30.69S WCI  19
BLYTHEVILLE    SUNNY     32  17  54 N7        30.70R WCI  26
$$

ARZ022-023-033-042-044-091700-
CENTRAL ARKANSAS

CITY           SKY/WX    TMP DP  RH WIND       PRES   REMARKS
LITTLE ROCK    MOSUNNY   29  15  56 VRB6      30.73R WCI  23
N LITTLE ROCK    N/A     29  17  61 NE6       30.74S WCI  23
JACKSONVILLE   SUNNY     29  14  54 NW3       30.71R
SEARCY         SUNNY     32  17  54 VRB3      30.74R
HOT SPRINGS    SUNNY     30  15  53 NE9       30.70S WCI  22
RUSSELLVILLE   SUNNY     29  16  58 VRB3      30.71R
CLINTON        FAIR      28  16  59 SE3       30.71R
$$

ARZ036-091700-
EAST ARKANSAS

CITY           SKY/WX    TMP DP  RH WIND       PRES   REMARKS
$$

ARZ050-053-066-070-073-091700-
SOUTHWEST ARKANSAS

CITY           SKY/WX    TMP DP  RH WIND       PRES   REMARKS
ARKADELPHIA    FAIR      31  20  63 N9        30.73R WCI  23
CAMDEN         MIX PCPN  32  16  51 NE6       30.73R WCI  26
TEXARKANA      PTSUNNY   31  18  58 NE7       30.69S WCI  24
EL DORADO      SUNNY     32  20  61 NE8       30.70S WCI  25
DE QUEEN       CLOUDY    30  20  66 E8        30.68F WCI  22
$$

ARZ056-057-069-091700-
SOUTHEAST ARKANSAS

CITY           SKY/WX    TMP DP  RH WIND       PRES   REMARKS
PINE BLUFF     SUNNY     30  19  63 N8        30.72R WCI  22
STUTTGART      SUNNY     28  14  54 N8        30.73R WCI  20
MONTICELLO     SUNNY     33  20  58 VRB5      30.70R WCI  29

$$





USA.gov is the U.S. government's official web portal to all federal, state and local government web resources and services.